028  
ASUS43 KFGF 150410  
RWRFGF  
PRAIRIE TO PINES WEATHER ROUNDUP  
NATIONAL WEATHER SERVICE EASTERN NORTH DAKOTA/GRAND FORKS ND  
1000 PM CST THU DEC 14 2017  
 
**SATELLITE DATA USED TO AUGMENT SKY COVER AT AUTOMATED STATIONS**  
***** WEATHER ACROSS EASTERN NORTH DAKOTA *****  
 
CITY SKY/WX TMP DP RH WIND PRES REMARKS
 
GRAND FORKS CLOUDY 20 18 92 NW5 30.01F WCI 13  
GRAND FRKS AFB CLOUDY 20 18 93 CALM 30.01F  
GRAND FRKS NWS N/A 19 N/A N/A N2 N/A  
DEVILS LAKE CLOUDY 24 22 91 E10 29.98S WCI 14  
FARGO CLOUDY 22 20 92 E6 30.00F WCI 14  
WAHPETON ARPT CLOUDY 27 23 86 W3 29.99F  

 
 
***** WEATHER ACROSS CENTRAL AND WESTERN NORTH DAKOTA *****  
 
CITY SKY/WX TMP DP RH WIND PRES REMARKS
 
BISMARCK CLOUDY 35 25 66 W8 30.03F  
MINOT CLOUDY 32 22 66 NW17 29.99F WCI 21  
JAMESTOWN CLOUDY 32 27 81 NW16 29.96F WCI 21  
MINOT AFB CLOUDY 31 22 70 NW14 29.98F WCI 21  
GARRISON N/A 31 25 78 NW13 30.00F WCI 21  
WILLISTON FAIR 25 21 85 SE3 30.03F  
DICKINSON FAIR 21 17 84 W8 30.00F WCI 11  
HETTINGER FAIR 18 15 88 CALM 30.05F  

 
 
***** OTHER AIRPORT OBSERVATIONS IN OUR AREA *****  
 
CITY SKY/WX TMP DP RH WIND PRES REMARKS
 
WALHALLA FAIR 19 19 100 N9G17 30.02F WCI 9  
GRAFTON AIRPOR CLOUDY 21 18 86 N9 30.04S WCI 11  
VALLEY CITY AR LGT RAIN 28 28 100 NW5 29.98F WCI 23  
CANDO CLOUDY 23 23 100 E5 30.00S WCI 17  
CAVALIER APRT LGT SNOW 19 16 86 N9 30.02F WCI 9  
GWINNER N/A 30 28 93 W10 29.98F WCI 21  
SHEYENNE NWR N/A 30 30 100 W9 29.95S WCI 22  
ROLLA CLOUDY 21 21 100 CALM 29.97S  
***** THE ABOVE OBSERVATIONS ARE NON NWS ARE NOT QUALITY  
CONTROLLED AND MAY MIS-REPORT RAIN FOR SNOW...  

 
 
***** WEATHER ACROSS NORTHERN MINNESOTA *****  
 
CITY SKY/WX TMP DP RH WIND PRES REMARKS
 
FLAG ISLAND FLURRIES 10 7 85 NW13 29.94S WCI -5  
WARROAD FAIR 9 5 85 NW7 29.97S WCI -3  
ROSEAU FLURRIES 12 9 85 NW10 29.98S WCI -1  
HALLOCK CLOUDY 18 14 86 N8 30.01F WCI 7  
THF RVR FALLS CLOUDY 16 14 92 W6 29.99F WCI 7  
BAUDETTE LGT SNOW 12 9 87 NW15 29.93S FOG WCI -4  
WASKISH FLURRIES 12 10 92 W6 29.94S WCI 3  
CROOKSTON CLOUDY 18 18 100 W6 30.02F WCI 9  
STEPHEN NDAWN N/A 18 16 93 VRB8 N/A WCI 7  
GREENBUSH NDAW N/A 14 10 85 NW17 N/A WCI -3  

 
***** WEATHER ACROSS CENTRAL AND WEST MINNESOTA *****  
 
CITY SKY/WX TMP DP RH WIND PRES REMARKS
 
FOSSTON LGT SNOW 12 10 92 W6 29.98S WCI 3  
BEMIDJI LGT SNOW 13 10 87 W6 29.94F WCI 4  
PARK RAPIDS CLOUDY 15 11 83 W6 29.94F WCI 6  
ELBOW LAKE CLOUDY 22 21 95 CALM 29.99F  
WADENA FLURRIES 16 12 86 W3 29.96F  
DETROIT LAKES FLURRIES 18 16 93 CALM 29.98F  
MOORHEAD CLOUDY 21 18 86 CALM 30.00F  
FERGUS FALLS CLOUDY 21 21 100 CALM 30.02F  
MORRIS MN CLOUDY 25 21 86 CALM 29.99F  
STAPLES FLURRIES 16 12 86 W6 29.97F WCI 7  

 
***** WEATHER ELSEWHERE ACROSS MINNESOTA *****  
 
CITY SKY/WX TMP DP RH WIND PRES REMARKS
 
DULUTH LGT SNOW 12 8 84 NW10 29.87F FOG WCI -1  
INTRNTL FALLS LGT SNOW 11 6 81 NW7 29.90F WCI 0  
ELY LGT SNOW 9 5 85 NW7 29.85F WCI -3  
CLOQUET LGT SNOW 14 9 79 NW7 29.89F WCI 4  
WHEATON CLOUDY 27 23 86 W8 30.02F WCI 18  
BRAINERD CLOUDY 19 11 70 NW12 29.95F WCI 7  
HIBBING CLOUDY 11 5 77 NW15 29.89F WCI -5  
ALEXANDRIA CLOUDY 21 19 92 W6 29.98F WCI 13  
SAINT CLOUD CLOUDY 20 14 77 NW10 29.99F WCI 9  
MINNEAPOLIS CLOUDY 23 17 78 NW14 30.00F WCI 11  

 
 
***** WEATHER ACROSS SOUTH DAKOTA *****  
 
CITY SKY/WX TMP DP RH WIND PRES REMARKS
 
SIOUX FALLS CLOUDY 28 23 81 W7 30.09S WCI 21  
BROOKINGS CLOUDY 26 23 88 W7 30.05F WCI 18  
WATERTOWN CLOUDY 26 24 92 W12 30.02F WCI 16  
HURON CLOUDY 30 26 85 W8 30.09F WCI 22  
SISSETON N/A 30 26 85 W13 29.99F WCI 20  
ABERDEEN CLOUDY 30 26 85 W8 30.04F WCI 22  
MITCHELL CLOUDY 30 25 81 W7 30.12F WCI 23  
PIERRE CLOUDY 32 27 81 W10 30.10F WCI 24  
MOBRIDGE CLOUDY 34 25 69 W8 30.04F  
RAPID CITY FAIR 16 11 80 CALM 30.12F  

 
 
***** SOME WEATHER IN NEARBY STATES *****  
 
CITY SKY/WX TMP DP RH WIND PRES REMARKS
 
GLASGOW MT FAIR 21 18 88 CALM 30.02F  
GREAT FALLS MT FAIR 34 19 54 SW18 30.07F WCI 23  
CHEYENNE WY FAIR 24 11 57 W12 30.16S WCI 13  
SCOTTSBLUFF NE FAIR 15 12 88 CALM 30.20F  
OMAHA NE CLOUDY 38 26 62 NW14 30.12S  
DES MOINES IA CLOUDY 32 24 72 W7 30.08S  
DAVENPORT IA CLOUDY 25 16 68 SW8 30.08F WCI 16  
CHICAGO IL MOCLDY 20 11 68 SW3 30.05F  
EAU CLAIRE WI FLURRIES 20 14 77 W5 29.96F WCI 13  
LA CROSSE WI CLOUDY 25 18 74 W14 30.00S WCI 13  

 
 
***** SOME NATIONAL WEATHER *****  
 
CITY SKY/WX TMP DP RH WIND PRES REMARKS
 
LA GUARDIA NY MOCLDY 25 8 48 NW9 30.09S WCI 15  
RALEIGH NC FAIR 37 25 61 NE5 30.02R  
ATLANTA GA CLOUDY 47 37 68 W7 29.99S  
NEW ORLEANS LA CLOUDY 54 50 86 CALM 30.02S  
OKLAHOMA CITY FAIR 36 26 67 CALM 30.18R  
ALBUQUERQUE NM FAIR 37 14 38 VRB3 30.25R  
SALT LAKE CITY FAIR 31 25 78 SE7 30.42F WCI 24  
LOS ANGELES CA FAIR 62 52 69 SE8 30.05R  
BOISE ID CLOUDY 27 23 85 SE5 30.48F WCI 22  
SEATTLE WA MOCLDY 40 38 93 S3 30.23F  

 
 
*** WEATHER ACROSS MANITOBA...SASKATCHEWAN AND ONTARIO ***  
***ONTARIO***  
 
CITY SKY/WX TMP DP RH WIND PRES REMARKS
 
GERALDTON PTCLDY -6 -8 92 CALM 29.78F  
THUNDER BAY FLURRIES 16 14 93 W6 29.84F WCI 7  
SIOUX LOOKOUT LGT SNOW 9 5 85 NW8 29.82F WCI -4  
TORONTO PTCLDY 12 7 79 W9 30.00F WCI 0  
BIG TROUT LK FLURRIES -11 -18 70 NW10 29.92R WCI -30  
PICKLE LAKE NOT AVBL  
DRYDEN LGT SNOW 9 7 92 NW7 29.84S WCI -3  
KENORA FLURRIES 9 5 85 NW7 29.89F WCI -3  

 
*** MANITOBA***  
 
CITY SKY/WX TMP DP RH WIND PRES REMARKS
 
BRANDON CLOUDY 19 18 93 E8 29.98F WCI 9  
DAUPHIN CLOUDY 18 14 86 E5 30.01F WCI 11  
ISLAND LAKE NOT AVBL  
PILOT MOUND NOT AVBL  
THE PAS FLURRIES 7 1 78 SE12 29.99F WCI -9  
THOMPSON CLEAR -18 -24 76 W3 30.01F  
WINNIPEG FLURRIES 14 9 79 N10 30.02S WCI 1  
LYNN LAKE CLOUDY -2 -6 84 NW5 29.93F FOG WCI -12  
CHURCHILL FLURRIES -8 -11 84 NW12 29.98F WCI -27  
GILLAM FLURRIES -13 -18 77 W7 30.00F WCI -29  

 
***SASKATCHEWAN***  
 
CITY SKY/WX TMP DP RH WIND PRES REMARKS
 
ESTEVAN CLOUDY 28 21 74 W7 29.99F WCI 21  
KINDERSLEY CLOUDY 28 25 86 SW7 29.85F WCI 21  
LLOYDMINSTER PTCLDY 32 28 86 W13 29.76F WCI 22  
PRINCE ALBERT CLOUDY 27 23 86 S3 29.88F  
REGINA CLOUDY 21 21 100 S8 29.95F WCI 12  
YORKTON CLOUDY 25 21 86 NW7 29.93F WCI 17  
N. BATTLEFORD CLOUDY 32 27 80 SW10 29.83F WCI 24  
LA RONGE LGT SNOW 18 14 86 E5 29.85F WCI 11  
SASKATOON CLOUDY 28 25 86 S8 29.88F WCI 20  
SWIFT CURRENT CLOUDY 30 23 74 SW13 29.90F WCI 20  

 
NOTE: THESE ARE AUTOMATED STATIONS WITH LIMITED QUALITY CONTROL  
"FAIR" INDICATES FEW OR NO CLOUDS BELOW 12,000 FEET WITH NO  
SIGNIFICANT WEATHER AND/OR S TO VISIBILITY
.  
SKY/WX - SKY CONDITION AND SIGNIFICANT WEATHER.  
TMP - AIR TEMPERATURE. DP - DEWPOINT TEMPERATURE.  
RH - RELATIVE HUMIDITY. PRES - PRESSURE.  
HX - HEAT INDEX. WCI - WIND CHILL INDEX.  
$  
 
 
CLICK HERE TO GO TO PREVIOUS BULLETINS.

The Nexlab ND Page
The Nexlab MN Page Main Text Page